BIROS

Last updated on Tue Sep 16 2025 00:02:31 GMT+0000 (Coordinated Universal Time)

1 41604U 16040F 25258.61472082 .00058075 00000+0 50077-3 0 9994 2 41604 97.0820 288.0613 0006224 142.8985 217.2709 15.69072612514830
UTC large
Height (km)
Speed (km/s)
/
Latitude / Longitude
Inclination (degrees)
Orbital Period (minutes)
Azimuth
Elevation
Range (km)
Doppler Factor

Next 0 passes for location: London (51.5072 / 0.1276)

Sorry there are no passes over London.